Location: Unspecified
(0.0000°N, 0.0000°E)
Time: 19:00:54
(UTC+00:00)

Courier 1B Rocket - Pass Details

Date: 26 November 2019
Orbit: 920 x 1202 km, 28.2° (Epoch: 08 December)

Event Time Altitude Azimuth Distance (km) Brightness Sun altitude
Rises 05:21:04 0° 214° (SSW) 3,756 7.9 -6.1°
Reaches altitude 10° 05:25:07 10° 192° (SSW) 2,745 7.5 -5.1°
Maximum altitude 05:28:49 15° 157° (SSE) 2,325 7.7 -4.3°
Drops below altitude 10° 05:32:25 10° 123° (ESE) 2,656 9.1 -3.4°
Sets 05:36:12 0° 100° (E) 3,568 10.3 -2.6°
